{"data":{"norad_id":64170,"intl_designator":"2025-113A","name":"STARLINK-34177","alt_names":[],"object_type":"PAYLOAD","status":"ACTIVE","operator":null,"country":"US","launch_date":"2025-05-28","launch_site_code":"AFETR","launch_vehicle":null,"mission":null,"orbit_class":"UNKNOWN","rcs_meters":null,"size_class":null,"mass_kg":null,"dimensions":null,"purposes":["comms"],"wikipedia_slug":null,"has_3d_model":false,"image_url":null,"decayed_at":null,"tle_current":{"epoch":"2026-05-25T02:58:50.191392Z","epoch_age_seconds":64385,"freshness":"FRESH","line1":"1 64170U 25113A   26145.12419203  .00012545  00000+0  41518-3 0  9998","line2":"2 64170  53.1591  95.6814 0001562  53.6185 306.4960 15.31711657 56779","mean_motion":15.31711657,"eccentricity":0.0001562,"inclination_deg":53.1591,"raan_deg":95.6814,"arg_perigee_deg":53.6185,"mean_anomaly_deg":306.496,"bstar":0.00041518,"rev_number":5677,"period_min":94.012472479342,"perigee_km":469.6354573767,"apogee_km":471.77503569452,"semimajor_km":6848.8422465356,"source":"CELESTRAK","updated_at":"2026-05-25T13:38:20.308530Z"}}}